Time,TemperatureF,DewpointF,PressureIn,WindDirection,WindDirectionDegrees,WindSpeedMPH,WindSpeedGustMPH,Humidity,HourlyPrecipIn,Conditions,Clouds,dailyrainin,SoftwareType,DateUTC
2013-02-27 00:13:00,29.6,29.0,29.64,North,1,6.0,9.0,98,0.00,,,0.00,weatherlink.com 1.10,2013-02-27 06:13:00,
2013-02-27 00:28:00,29.5,29.0,29.64,NNE,21,3.0,8.0,98,0.00,,,0.00,weatherlink.com 1.10,2013-02-27 06:28:00,
2013-02-27 00:43:00,29.5,29.0,29.65,North,1,4.0,10.0,98,0.00,,,0.00,weatherlink.com 1.10,2013-02-27 06:43:00,
2013-02-27 00:58:00,29.4,29.0,29.65,NNE,32,4.0,11.0,98,0.00,,,0.00,weatherlink.com 1.10,2013-02-27 06:58:00,
2013-02-27 01:13:00,29.4,29.0,29.65,NNW,328,5.0,8.0,99,0.00,,,0.00,weatherlink.com 1.10,2013-02-27 07:13:00,
2013-02-27 01:28:00,29.4,29.0,29.65,NNE,16,5.0,9.0,99,0.00,,,0.00,weatherlink.com 1.10,2013-02-27 07:28:00,
2013-02-27 01:43:00,29.4,29.0,29.65,NNE,20,6.0,9.0,98,0.00,,,0.00,weatherlink.com 1.10,2013-02-27 07:43:00,
2013-02-27 01:58:00,29.4,29.0,29.64,North,8,8.0,10.0,98,0.00,,,0.00,weatherlink.com 1.10,2013-02-27 07:58:00,
2013-02-27 02:13:00,29.4,29.0,29.64,North,1,4.0,11.0,98,0.00,,,0.00,weatherlink.com 1.10,2013-02-27 08:13:00,
2013-02-27 02:28:00,29.4,29.0,29.64,NNE,16,8.0,11.0,97,0.00,,,0.00,weatherlink.com 1.10,2013-02-27 08:28:00,
2013-02-27 02:43:00,29.3,29.0,29.64,NNE,22,4.0,11.0,97,0.00,,,0.00,weatherlink.com 1.10,2013-02-27 08:43:00,
2013-02-27 03:13:00,29.1,29.0,29.63,NE,51,4.0,9.0,98,0.00,,,0.00,weatherlink.com 1.10,2013-02-27 09:13:00,
2013-02-27 03:28:00,29.0,29.0,29.63,NNE,17,6.0,10.0,98,0.00,,,0.00,weatherlink.com 1.10,2013-02-27 09:28:00,
2013-02-27 03:43:00,29.0,29.0,29.63,NNE,23,3.0,14.0,98,0.00,,,0.00,weatherlink.com 1.10,2013-02-27 09:43:00,
2013-02-27 03:58:00,29.2,29.0,29.63,NNW,342,1.0,11.0,97,0.00,,,0.00,weatherlink.com 1.10,2013-02-27 09:58:00,
2013-02-27 04:13:00,29.3,29.0,29.64,NNW,336,11.0,12.0,97,0.00,,,0.00,weatherlink.com 1.10,2013-02-27 10:13:00,
2013-02-27 04:28:00,29.4,28.0,29.64,North,354,3.0,12.0,96,0.00,,,0.00,weatherlink.com 1.10,2013-02-27 10:28:00,
2013-02-27 04:43:00,29.4,28.0,29.63,NNE,16,4.0,10.0,96,0.00,,,0.00,weatherlink.com 1.10,2013-02-27 10:43:00,
2013-02-27 04:58:00,29.4,28.0,29.64,NNE,18,3.0,11.0,96,0.00,,,0.00,weatherlink.com 1.10,2013-02-27 10:58:00,
2013-02-27 05:13:00,29.2,29.0,29.64,NNW,340,2.0,9.0,97,0.00,,,0.00,weatherlink.com 1.10,2013-02-27 11:13:00,
2013-02-27 05:28:00,29.2,29.0,29.64,NNE,18,2.0,10.0,97,0.00,,,0.00,weatherlink.com 1.10,2013-02-27 11:28:00,
2013-02-27 05:43:00,29.2,29.0,29.65,NNW,335,6.0,10.0,97,0.00,,,0.00,weatherlink.com 1.10,2013-02-27 11:43:00,
2013-02-27 05:58:00,29.2,29.0,29.65,ENE,77,4.0,11.0,97,0.00,,,0.00,weatherlink.com 1.10,2013-02-27 11:58:00,
2013-02-27 06:13:00,29.2,29.0,29.66,NNW,343,7.0,13.0,98,0.00,,,0.00,weatherlink.com 1.10,2013-02-27 12:13:00,
2013-02-27 06:28:00,29.1,29.0,29.66,North,353,2.0,12.0,98,0.00,,,0.00,weatherlink.com 1.10,2013-02-27 12:28:00,
2013-02-27 06:43:00,29.0,29.0,29.66,North,349,7.0,10.0,98,0.00,,,0.00,weatherlink.com 1.10,2013-02-27 12:43:00,
2013-02-27 06:58:00,29.1,29.0,29.66,NNE,16,5.0,10.0,98,0.00,,,0.00,weatherlink.com 1.10,2013-02-27 12:58:00,
2013-02-27 07:13:00,29.1,29.0,29.66,NNW,345,5.0,12.0,98,0.00,,,0.00,weatherlink.com 1.10,2013-02-27 13:13:00,
2013-02-27 07:28:00,29.2,29.0,29.66,North,6,3.0,14.0,98,0.00,,,0.00,weatherlink.com 1.10,2013-02-27 13:28:00,
2013-02-27 07:44:00,29.4,29.0,29.67,NW,317,7.0,11.0,98,0.00,,,0.00,weatherlink.com 1.10,2013-02-27 13:44:00,
2013-02-27 07:59:00,29.6,29.0,29.67,North,359,5.0,10.0,98,0.00,,,0.00,weatherlink.com 1.10,2013-02-27 13:59:00,
2013-02-27 08:14:00,29.8,29.0,29.67,NNW,330,4.0,11.0,98,0.00,,,0.00,weatherlink.com 1.10,2013-02-27 14:14:00,
2013-02-27 08:29:00,30.1,30.0,29.67,North,9,8.0,10.0,98,0.00,,,0.00,weatherlink.com 1.10,2013-02-27 14:29:00,
2013-02-27 08:44:00,30.3,30.0,29.67,NW,304,9.0,11.0,98,0.00,,,0.00,weatherlink.com 1.10,2013-02-27 14:44:00,
2013-02-27 08:59:00,30.3,30.0,29.67,North,359,7.0,11.0,98,0.00,,,0.00,weatherlink.com 1.10,2013-02-27 14:59:00,
2013-02-27 09:14:00,30.3,30.0,29.67,North,354,5.0,10.0,98,0.00,,,0.00,weatherlink.com 1.10,2013-02-27 15:14:00,
2013-02-27 09:29:00,31.0,31.0,29.67,NNE,16,5.0,10.0,98,0.00,,,0.00,weatherlink.com 1.10,2013-02-27 15:29:00,
2013-02-27 09:44:00,31.5,31.0,29.67,NNW,344,12.0,12.0,97,0.00,,,0.00,weatherlink.com 1.10,2013-02-27 15:44:00,
2013-02-27 09:59:00,32.1,31.0,29.68,NNW,330,7.0,10.0,97,0.00,,,0.00,weatherlink.com 1.10,2013-02-27 15:59:00,
2013-02-27 10:14:00,32.3,31.0,29.67,NNW,330,3.0,10.0,96,0.00,,,0.00,weatherlink.com 1.10,2013-02-27 16:14:00,
2013-02-27 10:29:00,32.1,31.0,29.68,NNW,347,7.0,10.0,96,0.00,,,0.00,weatherlink.com 1.10,2013-02-27 16:29:00,
2013-02-27 10:44:00,32.0,31.0,29.67,North,5,9.0,12.0,95,0.00,,,0.00,weatherlink.com 1.10,2013-02-27 16:44:00,
2013-02-27 10:59:00,32.3,31.0,29.67,NNW,332,6.0,11.0,94,0.00,,,0.00,weatherlink.com 1.10,2013-02-27 16:59:00,
2013-02-27 11:14:00,32.3,31.0,29.67,NNW,329,4.0,11.0,94,0.00,,,0.00,weatherlink.com 1.10,2013-02-27 17:14:00,
2013-02-27 11:29:00,32.2,31.0,29.68,NW,323,5.0,12.0,95,0.00,,,0.00,weatherlink.com 1.10,2013-02-27 17:29:00,
2013-02-27 11:44:00,32.3,31.0,29.68,NW,314,8.0,10.0,96,0.00,,,0.00,weatherlink.com 1.10,2013-02-27 17:44:00,
2013-02-27 11:59:00,32.0,31.0,29.68,NNW,345,7.0,13.0,96,0.00,,,0.00,weatherlink.com 1.10,2013-02-27 17:59:00,
2013-02-27 12:14:00,32.3,32.0,29.68,North,10,3.0,11.0,97,0.00,,,0.00,weatherlink.com 1.10,2013-02-27 18:14:00,
2013-02-27 12:29:00,32.6,32.0,29.67,North,355,5.0,11.0,97,0.00,,,0.00,weatherlink.com 1.10,2013-02-27 18:29:00,
2013-02-27 12:44:00,32.3,31.0,29.67,North,6,6.0,15.0,96,0.00,,,0.00,weatherlink.com 1.10,2013-02-27 18:44:00,
2013-02-27 12:59:00,32.2,32.0,29.67,NW,307,6.0,11.0,97,0.00,,,0.00,weatherlink.com 1.10,2013-02-27 18:59:00,
2013-02-27 13:14:00,32.4,32.0,29.68,NW,307,9.0,10.0,98,0.00,,,0.00,weatherlink.com 1.10,2013-02-27 19:14:00,
2013-02-27 13:29:00,32.4,32.0,29.68,North,11,4.0,10.0,98,0.00,,,0.00,weatherlink.com 1.10,2013-02-27 19:29:00,
2013-02-27 13:44:00,32.6,32.0,29.68,North,360,4.0,10.0,98,0.00,,,0.00,weatherlink.com 1.10,2013-02-27 19:44:00,
2013-02-27 13:59:00,32.6,32.0,29.69,NW,307,3.0,14.0,98,0.00,,,0.00,weatherlink.com 1.10,2013-02-27 19:59:00,
2013-02-27 14:14:00,32.9,32.0,29.69,NNW,331,7.0,11.0,98,0.00,,,0.00,weatherlink.com 1.10,2013-02-27 20:14:00,
2013-02-27 14:29:00,32.7,32.0,29.69,WNW,291,2.0,11.0,98,0.00,,,0.00,weatherlink.com 1.10,2013-02-27 20:29:00,
2013-02-27 14:44:00,32.8,32.0,29.69,NW,318,8.0,14.0,97,0.00,,,0.00,weatherlink.com 1.10,2013-02-27 20:44:00,
2013-02-27 14:59:00,32.8,32.0,29.69,NNW,330,7.0,13.0,98,0.01,,,0.01,weatherlink.com 1.10,2013-02-27 20:59:00,
2013-02-27 15:14:00,32.9,32.0,29.70,North,355,7.0,11.0,98,0.01,,,0.01,weatherlink.com 1.10,2013-02-27 21:14:00,
2013-02-27 15:29:00,32.9,32.0,29.70,NNW,341,3.0,13.0,98,0.02,,,0.02,weatherlink.com 1.10,2013-02-27 21:29:00,
2013-02-27 15:44:00,33.0,33.0,29.71,NW,315,6.0,8.0,99,0.02,,,0.02,weatherlink.com 1.10,2013-02-27 21:44:00,
2013-02-27 15:59:00,33.0,33.0,29.71,NNW,336,6.0,9.0,98,0.02,,,0.03,weatherlink.com 1.10,2013-02-27 21:59:00,
2013-02-27 16:14:00,32.9,32.0,29.72,North,9,7.0,15.0,98,0.02,,,0.03,weatherlink.com 1.10,2013-02-27 22:14:00,
2013-02-27 16:29:00,32.9,32.0,29.73,North,356,6.0,15.0,96,0.01,,,0.03,weatherlink.com 1.10,2013-02-27 22:29:00,
2013-02-27 16:44:00,32.7,32.0,29.73,NNW,328,4.0,12.0,97,0.01,,,0.03,weatherlink.com 1.10,2013-02-27 22:44:00,
2013-02-27 16:59:00,32.6,32.0,29.73,NNE,16,3.0,9.0,98,0.00,,,0.03,weatherlink.com 1.10,2013-02-27 22:59:00,
2013-02-27 17:14:00,32.7,32.0,29.74,NW,321,4.0,9.0,98,0.01,,,0.04,weatherlink.com 1.10,2013-02-27 23:14:00,
2013-02-27 17:29:00,32.6,32.0,29.75,NW,318,3.0,7.0,97,0.01,,,0.04,weatherlink.com 1.10,2013-02-27 23:29:00,
2013-02-27 17:44:00,32.5,32.0,29.75,NW,307,4.0,8.0,98,0.01,,,0.04,weatherlink.com 1.10,2013-02-27 23:44:00,
2013-02-27 17:59:00,32.5,32.0,29.76,NW,318,6.0,6.0,98,0.01,,,0.04,weatherlink.com 1.10,2013-02-27 23:59:00,
2013-02-27 18:15:00,32.5,32.0,29.76,NW,323,1.0,7.0,98,0.00,,,0.04,weatherlink.com 1.10,2013-02-28 00:15:00,
2013-02-27 18:30:00,32.4,32.0,29.77,NNW,330,6.0,9.0,98,0.00,,,0.04,weatherlink.com 1.10,2013-02-28 00:30:00,
2013-02-27 18:45:00,32.3,32.0,29.77,North,354,1.0,14.0,99,0.00,,,0.04,weatherlink.com 1.10,2013-02-28 00:45:00,
2013-02-27 19:00:00,32.2,32.0,29.77,NW,322,9.0,10.0,99,0.00,,,0.04,weatherlink.com 1.10,2013-02-28 01:00:00,
2013-02-27 19:15:00,32.2,32.0,29.77,NW,324,5.0,11.0,99,0.00,,,0.04,weatherlink.com 1.10,2013-02-28 01:15:00,
2013-02-27 19:30:00,32.3,32.0,29.77,NNW,328,8.0,12.0,99,0.00,,,0.04,weatherlink.com 1.10,2013-02-28 01:30:00,
2013-02-27 19:45:00,32.2,32.0,29.77,NW,319,7.0,10.0,99,0.00,,,0.04,weatherlink.com 1.10,2013-02-28 01:45:00,
2013-02-27 20:00:00,32.2,32.0,29.77,NNW,331,7.0,11.0,99,0.00,,,0.04,weatherlink.com 1.10,2013-02-28 02:00:00,
2013-02-27 20:15:00,32.2,32.0,29.78,NNW,344,6.0,11.0,99,0.00,,,0.04,weatherlink.com 1.10,2013-02-28 02:15:00,
2013-02-27 20:30:00,32.2,32.0,29.78,WNW,290,7.0,10.0,99,0.00,,,0.04,weatherlink.com 1.10,2013-02-28 02:30:00,
2013-02-27 20:45:00,32.3,32.0,29.79,NNW,328,3.0,13.0,98,0.00,,,0.04,weatherlink.com 1.10,2013-02-28 02:45:00,
2013-02-27 21:00:00,32.3,32.0,29.79,NNW,346,3.0,12.0,99,0.00,,,0.04,weatherlink.com 1.10,2013-02-28 03:00:00,
2013-02-27 21:15:00,32.3,32.0,29.80,NW,307,5.0,10.0,99,0.00,,,0.04,weatherlink.com 1.10,2013-02-28 03:15:00,
2013-02-27 21:30:00,32.4,32.0,29.80,NW,322,3.0,12.0,98,0.00,,,0.04,weatherlink.com 1.10,2013-02-28 03:30:00,
2013-02-27 21:45:00,32.4,32.0,29.80,NW,314,9.0,10.0,99,0.00,,,0.04,weatherlink.com 1.10,2013-02-28 03:45:00,
2013-02-27 22:00:00,32.5,32.0,29.80,NW,315,2.0,10.0,98,0.00,,,0.04,weatherlink.com 1.10,2013-02-28 04:00:00,
2013-02-27 22:20:00,32.5,32.0,29.80,NW,316,9.0,13.0,98,0.00,,,0.04,weatherlink.com 1.10,2013-02-28 04:20:00,
2013-02-27 22:30:00,32.6,32.0,29.80,North,356,4.0,11.0,98,0.00,,,0.04,weatherlink.com 1.10,2013-02-28 04:30:00,
2013-02-27 22:45:00,32.6,32.0,29.80,North,5,6.0,11.0,97,0.00,,,0.04,weatherlink.com 1.10,2013-02-28 04:45:00,
2013-02-27 23:00:00,32.6,32.0,29.81,NW,324,11.0,13.0,97,0.00,,,0.04,weatherlink.com 1.10,2013-02-28 05:00:00,
2013-02-27 23:15:00,32.6,32.0,29.80,NNW,341,5.0,15.0,97,0.00,,,0.04,weatherlink.com 1.10,2013-02-28 05:15:00,
2013-02-27 23:30:00,32.6,32.0,29.81,North,350,6.0,10.0,97,0.00,,,0.04,weatherlink.com 1.10,2013-02-28 05:30:00,
2013-02-27 23:45:00,32.5,32.0,29.81,North,8,4.0,12.0,97,0.00,,,0.04,weatherlink.com 1.10,2013-02-28 05:45:00,